Weather in Begishevo

Russia / Republic of Tatarstan     55°29′19″N   52°01′54″E
temp.,
°C
wind,
m/s
gust,
m/s
humid.,
%
clouds,
%
prec.,
mm/h
press.,
hPa
HPBL,
m
7 march, sun
sun700:00−15sw239685 0.1 101244
03:00−15sw239792 0.2 101249
06:00−16wsw3597100 0.2 1011101
09:00−14wsw359699 0.3 1011226
12:00−11wsw3592100 0.0 1010353
15:00−10sw469099 0.1 1009503
18:00−13s489684 0.0 1008137
21:00−12s5129492 0.0 1006306
8 march, mon
mon800:00−10s71394100 0.3 1002557
03:00−9s81593100 0.8 999698
06:00−6s71495100 0.6 994817
09:00−3ssw91488100 1.6 9931065
12:00−5wsw111778100 0.2 9941268
15:00−6wsw11168075 0.2 9971299
18:00−8wsw8168557 0.0 1000546
21:00−10wsw5118932 0.0 1002226
9 march, tue
tue900:00−14ssw339315 0.0 100331
03:00−12sse129640 0.6 100226
06:00−10nnw2296100 1.9 100250
09:00−9wnw4594100 2.5 1004324
12:00−8w569298 0.0 1007458
15:00−8w459099 0.1 1008575
18:00−12wnw3396100 0.1 100956
21:00−17nw239492 0.1 101022
10 march, wed
wed1000:00−17nw229872 0.1 101032
03:00−19nw239985 0.1 101146
06:00−20nnw239997 0.1 101276
09:00−18n469498 0.2 1014379
12:00−16nnw4691100 0.1 1015504
15:00−16nnw4689100 0.1 1016593
18:00−22wnw4699100 0.0 101890
21:00−25nw239992 0.1 101923
11 march, thu
thu1100:00−28w229810 0.0 102019
03:00−28wsw339918 0.0 102126
06:00−28wsw3610065 0.0 102092
09:00−23wsw699882 0.0 1020298
12:00−18wsw6994100 0.1 1020448
15:00−17w6992100 0.1 1020518
18:00−18wsw469798 0.0 1021123
21:00−18wsw369894 0.1 102296